Terminal Aerodrome Forecast
Issued by NWS

Home | Current Version | Previous Version | Text Only | Print | Product List | Glossary On
Versions: 1 2 3 4 5 6 7 8 9 10 11 12 13 14 15 16 17 18 19 20 21 22 23 24 25
000
FTUS45 KGJT 220528
TAFTEX
TAF
KTEX 220528Z 2206/2306 16005KT 6SM SHRA BR VCTS SCT040 BKN045CB
      TEMPO 2206/2210 3SM TSRA BKN035CB
     FM221200 14005KT P6SM VCSH BKN100
     FM221900 25009KT P6SM SCT080 SCT150
     FM230200 16005KT P6SM SCT110
      AMD NOT SKED=

USA.gov is the U.S. government's official web portal to all federal, state and local government web resources and services.